Tracking 32571 objects as of 17-Dec-2025
HD Live streaming from Space Station
objects crossing your sky now

STARLINK-32739

Track STARLINK-32739 now!
10-day predictions
STARLINK-32739 is classified as:


NORAD ID: 62498
Int'l Code: 2025-003M
Perigee: 488.9 km
Apogee: 491.3 km
Inclination: 43.0 °
Period: 94.3 minutes
Semi major axis: 6861 km
RCS: Unknown
Launch date: January 6, 2025
Source: United States (US)
Launch site: AIR FORCE EASTERN TEST RANGE (AFETR)
Your satellite tracking list
Your tracking list is empty




NASA's NSSDC Master Catalog

Two Line Element Set (TLE):
1 62498U 25003M   25350.20331595  .00034488  00000-0  12558-2 0  9992
2 62498  43.0034  40.4352 0001761 267.0691  92.9960 15.27609381 53857
Source of the keplerian elements: AFSPC